EW4462 Weather Reports


Display with metric or nautical units.
time (UTC)temp
F
wind
direction
speed
MPH
gust
MPH
rain 1hr
in
rain 24hr
in
rain mn
in
humidity
%
barometer
mb
20260508034040 62 112 0.0 0.0 0.00 0.00 0.00 85 1016.7
20260508033042 62 112 0.0 0.0 0.00 0.00 0.00 85 1016.5
20260508032102 63 114 0.0 0.0 0.00 0.00 0.00 85 1016.3
20260508031045 63 120 0.0 0.0 0.00 0.00 0.00 84 1016.2
20260508030106 63 120 0.0 0.0 0.00 0.00 0.00 84 1016.2
20260508025058 63 117 0.0 0.0 0.00 0.00 0.00 83 1016.0
20260508022907 64 117 0.0 0.0 0.00 0.00 0.00 82 1015.7
20260508021849 64 117 0.0 0.0 0.00 0.00 0.00 81 1015.8
20260508020907 64 152 0.0 0.0 0.00 0.00 0.00 80 1015.7
20260508014802 66 72 0.0 0.0 0.00 0.00 0.00 77 1015.6
20260508013758 67 101 0.0 0.0 0.00 0.00 0.00 76 1015.6
20260508012800 67 92 0.0 0.0 0.00 0.00 0.00 75 1015.5
20260508011818 67 104 0.0 0.0 0.00 0.00 0.00 75 1015.5
20260508010836 67 93 0.0 0.0 0.00 0.00 0.00 75 1015.5
20260508005855 67 161 0.0 0.0 0.00 0.00 0.00 76 1015.6
20260508004819 67 109 0.0 0.0 0.00 0.00 0.00 75 1015.5
20260508002712 68 94 0.0 0.0 0.00 0.00 0.00 73 1015.6
20260508001700 68 92 0.0 0.0 0.00 0.00 0.00 74 1015.5
20260507234435 69 111 0.0 0.0 0.00 0.00 0.00 72 1015.7
20260507233449 69 89 0.0 0.0 0.00 0.00 0.00 73 1015.6
20260507232504 69 76 0.0 0.0 0.00 0.00 0.00 72 1015.6
20260507231518 69 115 0.0 0.0 0.00 0.00 0.00 71 1015.6
20260507230534 70 106 0.0 3.0 0.00 0.00 0.00 71 1015.6
20260507222127 69 120 0.0 5.0 0.00 0.00 0.00 73 1016.0
20260507221100 71 105 0.0 7.0 0.00 0.00 0.00 70 1016.1
20260507220051 71 111 0.0 0.0 0.00 0.00 0.00 70 1016.1
20260507215054 71 113 0.0 0.0 0.00 0.00 0.00 70 1016.3
20260507214044 71 153 0.0 7.0 0.00 0.00 0.00 71 1016.1
20260507213053 72 121 0.0 0.0 0.00 0.00 0.00 69 1016.4
20260507212040 71 82 0.0 0.0 0.00 0.00 0.00 71 1016.4
20260507205831 71 125 0.0 5.0 0.00 0.00 0.00 70 1016.5
20260507202455 71 85 0.0 1.0 0.00 0.00 0.00 68 1016.6
20260507201424 71 82 0.0 3.0 0.00 0.00 0.00 69 1016.7
20260507200425 72 143 0.0 5.0 0.00 0.00 0.00 68 1016.6
20260507195437 72 140 0.0 1.0 0.00 0.00 0.00 69 1016.6
20260507194435 71 50 0.0 1.0 0.00 0.00 0.00 70 1016.7
20260507193411 71 101 0.0 0.0 0.00 0.00 0.00 70 1016.6
20260507192354 71 86 0.0 0.0 0.00 0.00 0.00 70 1016.7
20260507191321 71 88 0.0 0.0 0.00 0.00 0.00 70 1016.8
20260507181719 70 148 0.0 0.0 0.00 0.00 0.00 72 1017.3
20260507180729 70 117 0.0 0.0 0.00 0.00 0.00 71 1017.3
20260507174545 70 161 0.0 0.0 0.00 0.00 0.00 71 1017.4
20260507172434 69 92 0.0 0.0 0.00 0.00 0.00 73 1017.3
20260507171442 69 100 0.0 0.0 0.00 0.00 0.00 74 1017.3
20260507170412 69 91 0.0 0.0 0.00 0.00 0.00 73 1017.4
20260507164214 68 5 0.0 0.0 0.00 0.00 0.00 76 1017.5
20260507162015 64 44 0.0 0.0 0.00 0.00 0.00 80 1017.7
20260507160944 64 44 0.0 0.0 0.00 0.00 0.00 81 1017.8
20260507155943 64 34 0.0 0.0 0.00 0.00 0.00 82 1017.7
20260507154936 63 34 0.0 0.0 0.00 0.00 0.00 84 1017.9
20260507153904 63 34 0.0 0.0 0.00 0.00 0.00 84 1017.8
20260507152919 63 34 0.0 0.0 0.00 0.00 0.00 84 1017.7
20260507144513 61 355 0.0 0.0 0.00 0.00 0.00 89 1017.7
20260507142347 60 355 0.0 0.0 0.00 0.00 0.00 91 1017.4
20260507141359 60 355 0.0 0.0 0.00 0.00 0.00 91 1017.3
20260507140418 59 351 0.0 0.0 0.00 0.00 0.00 92 1017.2
20260507133058 58 355 0.0 0.0 0.00 0.00 0.00 92 1017.1
20260507132034 57 355 0.0 0.0 0.00 0.00 0.00 92 1017.0
20260507131012 57 341 0.0 0.0 0.00 0.00 0.00 92 1017.1
20260507130015 57 274 0.0 0.0 0.00 0.00 0.00 92 1016.9
20260507125038 57 274 0.0 0.0 0.00 0.00 0.00 92 1016.9
20260507124040 57 274 0.0 0.0 0.00 0.00 0.00 92 1016.8
20260507123043 57 274 0.0 0.0 0.00 0.00 0.00 92 1016.8
20260507122035 56 274 0.0 0.0 0.00 0.00 0.00 92 1016.8
20260507121010 56 275 0.0 0.0 0.00 0.00 0.00 91 1016.6
20260507115936 56 274 0.0 0.0 0.00 0.00 0.00 91 1016.5
20260507114930 57 274 0.0 0.0 0.00 0.00 0.00 91 1016.6
20260507113914 57 274 0.0 0.0 0.00 0.00 0.00 91 1016.6
20260507111729 57 274 0.0 0.0 0.00 0.00 0.00 90 1016.7
20260507110719 57 274 0.0 0.0 0.00 0.00 0.00 90 1016.7
20260507105732 57 274 0.0 0.0 0.00 0.00 0.00 89 1016.7
20260507104706 58 274 0.0 0.0 0.00 0.00 0.00 89 1016.9
20260507102541 58 274 0.0 0.0 0.00 0.00 0.00 88 1017.0
20260507101548 59 274 0.0 0.0 0.00 0.00 0.00 89 1017.0
20260507100527 59 274 0.0 0.0 0.00 0.00 0.00 89 1017.1
20260507095524 59 274 0.0 0.0 0.00 0.00 0.00 89 1017.2
20260507094518 59 274 0.0 0.0 0.00 0.00 0.00 89 1017.3
20260507093448 60 275 0.0 0.0 0.00 0.00 0.00 89 1017.4
20260507092433 60 274 0.0 0.0 0.00 0.00 0.00 90 1017.5
20260507091402 59 274 0.0 0.0 0.00 0.00 0.00 90 1017.5
20260507090358 59 274 0.0 0.0 0.00 0.00 0.00 90 1017.7
20260507085409 59 274 0.0 0.0 0.00 0.00 0.00 90 1017.6
20260507084345 59 274 0.0 0.0 0.00 0.00 0.00 89 1017.7
20260507083402 59 274 0.0 0.0 0.00 0.00 0.00 89 1017.8
20260507082327 59 274 0.0 0.0 0.00 0.00 0.00 89 1017.9
20260507081330 59 274 0.0 0.0 0.00 0.00 0.00 89 1017.9
20260507080324 59 274 0.0 0.0 0.00 0.00 0.00 89 1018.0
20260507075258 59 274 0.0 0.0 0.00 0.00 0.00 90 1018.1
20260507074247 58 274 0.0 0.0 0.00 0.00 0.00 89 1018.3
20260507073233 58 172 0.0 0.0 0.00 0.00 0.00 89 1018.3
20260507072203 58 172 0.0 0.0 0.00 0.00 0.00 89 1018.4
20260507071127 58 172 0.0 0.0 0.00 0.00 0.00 89 1018.4
20260507070100 58 172 0.0 0.0 0.00 0.00 0.00 89 1018.4
20260507065118 58 172 0.0 0.0 0.00 0.00 0.00 89 1018.5
20260507064113 58 172 0.0 0.0 0.00 0.00 0.00 87 1018.4
20260507063116 58 172 0.0 0.0 0.00 0.00 0.00 87 1018.6
20260507062040 58 172 0.0 0.0 0.00 0.00 0.00 87 1018.5
20260507054649 59 172 0.0 0.0 0.00 0.00 0.00 86 1018.6
20260507053648 59 172 0.0 0.0 0.00 0.00 0.00 86 1018.6
20260507052709 60 172 0.0 0.0 0.00 0.00 0.00 85 1018.6
20260507051653 60 172 0.0 0.0 0.00 0.00 0.00 85 1018.5
20260507050648 60 172 0.0 0.0 0.00 0.00 0.00 85 1018.4
20260507045612 61 172 0.0 0.0 0.00 0.00 0.00 85 1018.5
20260507044607 61 172 0.0 0.0 0.00 0.00 0.00 85 1018.4
20260507043624 61 172 0.0 0.0 0.00 0.00 0.00 85 1018.5
20260507042610 61 172 0.0 0.0 0.00 0.00 0.00 85 1018.5
20260507041626 61 172 0.0 0.0 0.00 0.00 0.00 85 1018.5
20260507040635 62 172 0.0 0.0 0.00 0.00 0.00 85 1018.4